Sheldon, IA

8:17 PM CDT on September 29, 2016 (GMT -0500)
Sheldon Municipal

Weather History for KSHL - October, 2013

Change the Weather History Date:

Tuesday, October 29, 2013

  Actual Average Record
Temperature  
Mean Temperature 40 °F -  
Max Temperature 46 °F 53 °F 77 °F (2004)
Min Temperature 35 °F 31 °F 14 °F (1952)
Degree Days  
Heating Degree Days 24    
Moisture  
Dew Point 42 °F    
Average Humidity 99    
Maximum Humidity 100    
Minimum Humidity 75    
Precipitation  
Precipitation 0.42 in - - ()
Sea Level Pressure  
Sea Level Pressure 30.09 in    
Wind  
Wind Speed 11 mph (East)    
Max Wind Speed 16 mph    
Max Gust Speed 23 mph    
Visibility 6 miles    
Events Rain    
Averages and records for this station are not official NWS values.
T = Trace of Precipitation, MM = Missing Value Source: NWS Daily Summary

Daily Weather History Graph

Daily Weather History Graph

Search for Another Location

Airport or City:

Trip Planner

Search our weather history database for the weather conditions in past years. The results will help you decide how hot, cold, wet, or windy it might be!

Date:

Astronomy

Oct. 29, 2013 Rise Set
Actual Time 7:54 AM CDT 6:18 PM CDT
Civil Twilight 7:25 AM CDT 6:48 PM CDT
Nautical Twilight 6:51 AM CDT 7:21 PM CDT
Astronomical Twilight 6:18 AM CDT 7:54 PM CDT
Moon 2:37 AM CDT (10/29) 3:40 PM CDT (10/29)
Length of Visible Light 11h 22m
Length of Day
10h 23m
Waning Crescent, 25% of the Moon is Illuminated
Oct 29
Waning Crescent
Nov 3
New
Nov 9
First Quarter
Nov 17
Full
Nov 25
Last Quarter

Hourly Weather History & Observations

Time (CDT) Temp. Windchill Dew Point Humidity Pressure Visibility Wind Dir Wind Speed Gust Speed Precip Events Conditions
12:15 AM 37.4 °F 29.8 °F 30.2 °F 75% 30.26 in 10.0 mi East 11.5 mph - N/A   Overcast
12:35 AM 37.4 °F 28.9 °F 30.2 °F 75% 30.26 in - East 13.8 mph - N/A   Overcast
12:55 AM 37.4 °F 29.8 °F 32.0 °F 81% 30.25 in 9.0 mi East 11.5 mph 19.6 mph N/A Rain Light Rain
1:15 AM 35.6 °F 27.5 °F 35.6 °F 100% 30.25 in 8.0 mi East 11.5 mph 18.4 mph N/A Rain Light Rain
1:35 AM 35.6 °F 26.6 °F 35.6 °F 100% 30.24 in 10.0 mi East 13.8 mph - N/A Rain Light Rain
1:55 AM 35.6 °F 27.1 °F 35.6 °F 100% 30.23 in 9.0 mi ENE 12.7 mph - 0.01 in Rain Light Rain
2:15 AM 35.6 °F 27.5 °F 35.6 °F 100% 30.23 in 10.0 mi East 11.5 mph 19.6 mph N/A   Overcast
2:35 AM 35.6 °F 27.1 °F 35.6 °F 100% 30.24 in 10.0 mi East 12.7 mph - N/A   Overcast
2:55 AM 35.6 °F 26.6 °F 35.6 °F 100% 30.23 in 10.0 mi East 13.8 mph - N/A   Overcast
3:15 AM 35.6 °F 26.2 °F 35.6 °F 100% 30.21 in 10.0 mi East 15.0 mph - N/A   Overcast
3:35 AM 35.6 °F 27.1 °F 35.6 °F 100% 30.23 in 10.0 mi ENE 12.7 mph - N/A   Overcast
3:55 AM 35.6 °F 25.9 °F 35.6 °F 100% 30.22 in 10.0 mi East 16.1 mph - N/A   Overcast
4:15 AM 35.6 °F 26.2 °F 35.6 °F 100% 30.21 in 10.0 mi ENE 15.0 mph 20.7 mph N/A   Overcast
9:35 AM 37.4 °F 30.3 °F 37.4 °F 100% 30.16 in - East 10.4 mph 21.9 mph N/A   Unknown
9:55 AM 39.2 °F 32.0 °F 39.2 °F 100% 30.16 in 10.0 mi East 11.5 mph - N/A   Overcast
10:15 AM 39.2 °F 31.2 °F 39.2 °F 100% 30.15 in 10.0 mi ESE 13.8 mph 23.0 mph N/A   Mostly Cloudy
10:35 AM 39.2 °F 31.6 °F 39.2 °F 100% 30.14 in 10.0 mi ESE 12.7 mph 20.7 mph N/A   Overcast
10:55 AM 39.2 °F 33.6 °F 39.2 °F 100% 30.15 in 10.0 mi East 8.1 mph 15.0 mph N/A   Overcast
11:15 AM 39.2 °F 32.5 °F 39.2 °F 100% 30.15 in 10.0 mi ESE 10.4 mph 18.4 mph N/A   Overcast
11:35 AM 41.0 °F 33.5 °F 41.0 °F 100% 30.14 in 10.0 mi East 13.8 mph - N/A   Overcast
11:55 AM 41.0 °F 33.9 °F 41.0 °F 100% 30.13 in 10.0 mi ESE 12.7 mph - N/A   Overcast
12:15 PM 41.0 °F 35.2 °F 41.0 °F 100% 30.13 in 8.0 mi ESE 9.2 mph 19.6 mph N/A   Mostly Cloudy
12:35 PM 41.0 °F 33.9 °F 41.0 °F 100% 30.12 in 7.0 mi ESE 12.7 mph - N/A Rain Light Rain
12:55 PM 41.0 °F 35.2 °F 41.0 °F 100% 30.12 in 9.0 mi ESE 9.2 mph 16.1 mph N/A   Overcast
1:15 PM 41.0 °F 34.7 °F 41.0 °F 100% 30.10 in 10.0 mi East 10.4 mph - N/A   Overcast
1:35 PM 42.8 °F 36.2 °F 42.8 °F 100% 30.08 in 10.0 mi ESE 12.7 mph - N/A   Overcast
1:55 PM 44.6 °F 38.4 °F 42.8 °F 93% 30.07 in 10.0 mi East 12.7 mph - N/A   Overcast
2:15 PM 44.6 °F 39.7 °F 42.8 °F 93% 30.06 in 10.0 mi East 9.2 mph - N/A   Mostly Cloudy
2:35 PM 44.6 °F 38.4 °F 44.6 °F 100% 30.05 in 8.0 mi East 12.7 mph - N/A Rain Light Rain
2:55 PM 44.6 °F 38.8 °F 44.6 °F 100% 30.04 in 5.0 mi ENE 11.5 mph - N/A Rain Light Rain
3:15 PM 44.6 °F 40.2 °F 44.6 °F 100% 30.04 in 1.8 mi East 8.1 mph 15.0 mph N/A Rain Light Rain
3:35 PM 42.8 °F 38.0 °F 42.8 °F 100% 30.03 in 1.2 mi East 8.1 mph - N/A Rain Rain
3:55 PM 44.6 °F 39.7 °F 44.6 °F 100% 30.03 in 2.5 mi ENE 9.2 mph - 0.12 in Rain Light Rain
4:15 PM 44.6 °F 41.4 °F 44.6 °F 100% 30.03 in 3.0 mi East 5.8 mph - N/A   Light Drizzle
4:35 PM 44.6 °F 41.4 °F 44.6 °F 100% 30.03 in 1.0 mi East 5.8 mph - N/A Rain Light Rain
4:55 PM 44.6 °F 39.7 °F 44.6 °F 100% 30.01 in 1.5 mi East 9.2 mph - 0.09 in Rain Rain
5:15 PM 44.6 °F 39.2 °F 44.6 °F 100% 30.01 in 1.5 mi ESE 10.4 mph - N/A   Overcast
5:35 PM 44.6 °F 39.7 °F 44.6 °F 100% 30.01 in 1.8 mi ESE 9.2 mph - N/A   Overcast
5:55 PM 44.6 °F 40.2 °F 44.6 °F 100% 30.00 in 2.0 mi ESE 8.1 mph - 0.17 in Rain Light Rain
6:15 PM 44.6 °F 40.7 °F 44.6 °F 100% 30.00 in 2.0 mi East 6.9 mph - N/A Rain Light Rain
6:35 PM 44.6 °F 40.7 °F 44.6 °F 100% 30.01 in 3.0 mi East 6.9 mph - N/A   Overcast
6:55 PM 44.6 °F 40.7 °F 44.6 °F 100% 30.01 in 4.0 mi East 6.9 mph - 0.02 in   Overcast
7:15 PM 44.6 °F 41.4 °F 44.6 °F 100% 30.02 in 4.0 mi ENE 5.8 mph - N/A   Overcast
7:35 PM 46.4 °F 43.5 °F 46.4 °F 100% 30.02 in 4.0 mi East 5.8 mph - N/A   Overcast
7:55 PM 46.4 °F 43.5 °F 46.4 °F 100% 30.01 in 3.0 mi East 5.8 mph - N/A   Overcast
8:15 PM 46.4 °F 43.5 °F 46.4 °F 100% 30.01 in 3.0 mi East 5.8 mph - N/A   Overcast
8:35 PM 46.4 °F 41.9 °F 46.4 °F 100% 29.99 in 3.0 mi ENE 9.2 mph - N/A   Overcast
8:55 PM 46.4 °F 43.5 °F 46.4 °F 100% 30.00 in 2.5 mi ENE 5.8 mph 11.5 mph N/A   Overcast
9:15 PM 46.4 °F 43.5 °F 46.4 °F 100% 30.00 in 1.8 mi East 5.8 mph - N/A   Overcast
9:35 PM 46.4 °F 41.1 °F 46.4 °F 100% 30.00 in 1.0 mi ENE 11.5 mph - N/A Rain Light Rain
9:55 PM 46.4 °F 43.5 °F 46.4 °F 100% 30.00 in 1.2 mi ENE 5.8 mph - N/A   Overcast
10:15 PM 46.4 °F 44.3 °F 46.4 °F 100% 30.00 in 1.0 mi ENE 4.6 mph - N/A   Overcast
10:35 PM 46.4 °F 44.3 °F 46.4 °F 100% 30.01 in 1.2 mi ENE 4.6 mph - N/A   Overcast
10:55 PM 46.4 °F 44.3 °F 46.4 °F 100% 30.01 in 1.2 mi ENE 4.6 mph - N/A   Overcast
11:15 PM 44.6 °F 41.4 °F 44.6 °F 100% 30.01 in 1.0 mi NE 5.8 mph - N/A   Overcast
11:35 PM 44.6 °F 42.2 °F 44.6 °F 100% 30.00 in 1.0 mi NE 4.6 mph - N/A   Light Drizzle
11:55 PM 46.4 °F 42.9 °F 46.4 °F 100% 29.99 in 0.8 mi NE 6.9 mph - 0.01 in Rain Light Rain